Tracking 28081 objects as of 26-Sep-2023
HD Live streaming from Space Station
objects crossing your sky now

NOAA 16 DEB

Track NOAA 16 DEB now!
10-day predictions


NORAD ID: 41244
Int'l Code: 2000-055EU
Perigee: 821.2 km
Apogee: 837.6 km
Inclination: 99.0 °
Period: 101.3 minutes
Semi major axis: 7200 km
RCS: Unknown
Launch date: September 21, 2000
Source: United States (US)
Launch site: AIR FORCE WESTERN TEST RANGE (AFWTR)

Note: This is SATELLITE DEBRIS
Your satellite tracking list
Your tracking list is empty




NASA's NSSDC Master Catalog

Two Line Element Set (TLE):
1 41244U 00055EU  23269.16263036  .00006929  00000-0  32185-2 0  9991
2 41244  98.9952  32.7853 0011428 347.1141  12.9742 14.20909456399101
Source of the keplerian elements: AFSPC